Regional Weather Roundup
Issued by NWS

Home | Current Version | Previous Version | Graphics & Text | Print | Product List | Glossary On
Versions: 1 2 3 4 5 6 7 8 9 10 11 12 13 14 15 16 17 18 19 20 21 22 23 24 25 26 27 28 29 30 31 32 33 34 35 36 37 38 39 40 41 42 43 44 45 46 47 48 49 50
599
ASUS45 KTFX 290510
RWRMT
MONTANA REGIONAL WEATHER ROUNDUP
NATIONAL WEATHER SERVICE GREAT FALLS MT
1100 PM MDT WED JUN 28 2017

NOTE: "FAIR" INDICATES FEW OR NO CLOUDS BELOW 12000 FEET WITH NO
SIGNIFICANT WEATHER AND/OR OBSTRUCTIONS TO VISIBILITY.

MTZ001>007-043-290600-
WEST OF THE DIVIDE

CITY           SKY/WX    TMP DP  RH WIND       PRES   REMARKS
KALISPELL      CLOUDY    57  47  69 CALM      29.92R
MISSOULA       MOCLDY    60  38  43 N9        29.91R
BUTTE          CLOUDY    60  36  40 SW6       29.98R
MULLAN PASS    CLOUDY    46  37  71 N6        30.03R
ANACONDA         N/A     59  30  33 E3        29.97R
DEER LODGE       N/A     55  36  47 W8        29.97R
EUREKA           N/A     57  46  67 MISG      29.91R
HAMILTON         N/A     66  36  32 CALM      29.92R
$$

MTZ008-052>055-290600-
SOUTHWEST MONTANA

CITY           SKY/WX    TMP DP  RH WIND       PRES   REMARKS
BOZEMAN        LGT RAIN  58  46  64 CALM      29.93R
DILLON         CLOUDY    56  43  61 E6        29.96R
W YELLOWSTONE  CLOUDY    46  46 100 CALM      30.09S
ENNIS          CLOUDY    57  43  58 N8        30.05R
THREE FORKS      N/A     60  50  69 CALM      29.94R
$$

MTZ009-010-012-014-046-048-049-054-290600-
EAST SLOPES AND CENTRAL MONTANA

CITY           SKY/WX    TMP DP  RH WIND       PRES   REMARKS
CUT BANK       PTCLDY    53  45  74 N18       29.95R
GREAT FALLS    CLOUDY    63  35  35 NW8       29.88R
MALMSTROM AFB  MOCLDY    64  37  37 N12G21    29.87R
HELENA         MOCLDY    65  34  31 NW9       29.88R
CHOTEAU          N/A     57  43  58 N16       29.96R
$$

MTZ011-013-016-021-045-047-050-051-290600-
NORTH CENTRAL MONTANA

CITY           SKY/WX    TMP DP  RH WIND       PRES   REMARKS
HAVRE          PTCLDY    63  45  51 NE14      29.83R
LEWISTOWN      CLOUDY    59  37  44 SW8       29.86R
N BAR RANCH      N/A     55  34  44 NW6       29.89R
CHINOOK          N/A     63  46  55 N12G21    29.80R
FORT BENTON      N/A     63  45  51 CALM      29.89R
$$

MTZ017>020-022>027-061-062-290600-
NORTHEAST MONTANA

CITY           SKY/WX    TMP DP  RH WIND       PRES   REMARKS
GLASGOW        CLOUDY    68  42  38 SW23G35   29.76R
JORDAN           N/A     63  48  58 SE9       29.76S
SIDNEY         PTCLDY    58  51  78 E5          N/A
WOLF POINT     PTCLDY    65  45  48 VRB5      29.75S
MALTA          PTCLDY    64  41  42 S3        29.73S
PLENTYWOOD       N/A     63  46  55 N10       29.80R
POPLAR           N/A     64  45  48 CALM      29.76S
$$

MTZ028>42-056>058-290600-
SOUTHCENTRAL AND SOUTHEAST MONTANA

CITY           SKY/WX    TMP DP  RH WIND       PRES   REMARKS
BAKER          CLOUDY    62  48  60 W10       29.82F
BILLINGS       CLOUDY    61  45  55 SW18      29.84S
LIVINGSTON     CLOUDY    53  42  66 SW5       29.92R
MILES CITY     MOCLDY    64  51  62 S12       29.80R
BIG TIMBER     MOCLDY    59  41  51 W17       29.93S
LAUREL           N/A     58  44  59 SW3       29.86R
ROUNDUP          N/A     63  41  44 S8        29.76R
$$

REGIONAL REPORTS...DAKOTAS

CITY           SKY/WX    TMP DP  RH WIND       PRES   REMARKS
WILLISTON      MOCLDY    60  49  66 N3        29.79R
MINOT          CLOUDY    60  50  69 N3        29.75R
DICKINSON      MOCLDY    61  42  49 CALM      29.77R
BEACH            N/A     61  45  55 S5        29.80S
CROSBY           N/A     57  50  77 W6        29.78F
TIOGA          MOCLDY    55  52  88 CALM      29.81R
WATFORD CITY     N/A     57  46  67 VRB3      29.78R
BISMARCK       CLOUDY    65  53  65 CALM      29.76R
GRAND FORKS    CLOUDY    64  62  93 NE8       29.70R
FARGO          PTCLDY    61  60  97 NW5       29.69R
BUFFALO SD       N/A     62  52  69 NW7       29.73F
RAPID CITY     MOCLDY    60  51  72 NW7       29.84F
$$

REGIONAL REPORTS...WYOMING/IDAHO/WASHINGTON

CITY           SKY/WX    TMP DP  RH WIND       PRES   REMARKS
GILLETTE       MOCLDY    57  54  89 W6        29.92R
SHERIDAN       CLOUDY    55  50  83 SW10      29.92R
BUFFALO WY     CLOUDY    57  43  59 NW16G25   29.95R
CODY           CLOUDY    59  39  47 W10G18    29.95R
YELLOWSTONE LA   N/A     40  40 100 CALM      30.15S
IDAHO FALLS    CLOUDY    58  44  60 E15G24    29.96S
SALMON         CLOUDY    57  46  67 CALM      29.91R
BOISE          CLEAR     71  36  27 NE6       29.87R
SPOKANE        RAIN      57  55  93 NE6       29.97R
$$

REGIONAL REPORTS...ALBERTA

CITY           SKY/WX    TMP DP  RH WIND       PRES   REMARKS
EDMONTON       CLOUDY    54  54 100 N5        29.95R
CALGARY        MOCLDY    54  45  71 NW7       29.98R
LETHBRIDGE     CLOUDY    55  52  88 W6        29.95R
MEDICINE HAT   PTCLDY    57  48  72 NW8       29.86R
WATERTON GATE    N/A     48  45  87 NW1         N/A
CARDSTON         N/A     50  48  93 W3          N/A
MILK RIVER       N/A     52  50  93 N8          N/A
$$

REGIONAL REPORTS...SASKATCHEWAN

CITY           SKY/WX    TMP DP  RH WIND       PRES   REMARKS
SWIFT CURRENT  MOCLDY    54  48  82 E6        29.81R
REGINA         MOCLDY    59  50  72 SW6       29.79R
SASKATOON      PTCLDY    55  54  94 W2        29.78S
CYPRESS HILLS    N/A     50  41  71 N3          N/A
VAL MARIE        N/A     55  45  67 N12         N/A
ROCKGLEN         N/A     55  48  76 SE8         N/A
$$




USA.gov is the U.S. government's official web portal to all federal, state and local government web resources and services.